This is the latest recevied weather packets stored in our database for station/object KD8OZS. If no packets are shown the sender has not sent any weather packets the latest 10 day(s).
| Time | Temp. | Humidity | Pressure | Rain* | Wind** | Luminosity | Snow |
|---|---|---|---|---|---|---|---|
| 1778180273 | 13.89° C | 52% | 1005 hPa | 0 mm | - | 773 W/m² | - |
| 1778179969 | 13.89° C | 51% | 1005.1 hPa | 0 mm | - | 773 W/m² | - |
| 1778179365 | 14.44° C | 53% | 1005.1 hPa | 0 mm | - | 174 W/m² | - |
| 1778178758 | 14.44° C | 48% | 1005 hPa | 0 mm | - | 781 W/m² | - |
| 1778178456 | 14.44° C | 50% | 1005.3 hPa | 0 mm | - | 665 W/m² | - |
| 1778178150 | 13.89° C | 51% | 1005.2 hPa | 0 mm | - | 642 W/m² | - |
| 1778177848 | 14.44° C | 49% | 1005.1 hPa | 0 mm | - | 264 W/m² | - |
| 1778176938 | 13.89° C | 49% | 1005.1 hPa | 0 mm | - | 783 W/m² | - |
| 1778175423 | 13.33° C | 51% | 1005.4 hPa | 0 mm | - | 824 W/m² | - |
| 1778174513 | 14.44° C | 49% | 1005.6 hPa | 0 mm | - | 360 W/m² | - |
| 1778171485 | 13.89° C | 50% | 1005.7 hPa | 0 mm | - | 81 W/m² | - |
| 1778168145 | 12.78° C | 51% | 1005.7 hPa | 0 mm | - | 148 W/m² | - |
| 1778167842 | 12.22° C | 53% | 1005.5 hPa | 0 mm | - | 119 W/m² | - |
| 1778167538 | 13.33° C | 49% | 1005.7 hPa | 0 mm | - | 147 W/m² | - |
| 1778166930 | 12.78° C | 52% | 1005.7 hPa | 0 mm | - | 115 W/m² | - |
| 1778166628 | 12.78° C | 50% | 1005.5 hPa | 0 mm | - | 776 W/m² | - |
| 1778166325 | 12.78° C | 50% | 1005.5 hPa | 0 mm | - | 492 W/m² | - |
| 1778165415 | 12.22° C | 51% | 1005.8 hPa | 0 mm | - | 824 W/m² | - |
| 1778165111 | 11.67° C | 48% | 1005.7 hPa | 0 mm | - | 403 W/m² | - |
| 1778164809 | 12.22° C | 52% | 1005.6 hPa | 0 mm | - | 667 W/m² | - |
| 1778164505 | 12.22° C | 51% | 1005.7 hPa | 0 mm | - | 725 W/m² | - |
| 1778164203 | 11.67° C | 55% | 1005.9 hPa | 0 mm | - | 115 W/m² | - |
| 1778163898 | 11.67° C | 54% | 1005.7 hPa | 0 mm | - | 729 W/m² | - |
| 1778163595 | 12.78° C | 54% | 1005.9 hPa | 0 mm | - | 732 W/m² | - |
| 1778163291 | 12.22° C | 54% | 1005.8 hPa | 0 mm | - | 764 W/m² | - |
* Rain latest hour (hover to see other rain measurements)
** Current wind speed in m/s (hover to see current wind gust speed)